Regional Weather Roundup
Issued by NWS

Home | Current Version | Previous Version | Graphics & Text | Print | Product List | Glossary On
Versions: 1 2 3 4 5 6 7 8 9 10 11 12 13 14 15 16 17 18 19 20 21 22 23 24 25 26 27 28 29 30 31 32 33 34 35 36 37 38 39 40 41 42 43 44 45 46 47 48 49 50
628
ASUS43 KMPX 251610
RWRMN
WEATHER ROUNDUP FOR MINNESOTA
NATIONAL WEATHER SERVICE TWIN CITIES/CHANHASSEN MN
1100 AM CDT WED MAY 25 2016


NOTE: "FAIR" INDICATES FEW OR NO CLOUDS BELOW 12,000 FEET WITH NO
SIGNIFICANT WEATHER AND/OR OBSTRUCTIONS TO VISIBILITY. N/A MEANS
CURRENT SKY AND/OR WEATHER CONDITIONS ARE NOT AVAILABLE.

MNZ060>063-068>070-251700-
   Twin Cities Metro

CITY           SKY/WX    TMP DP  RH WIND       PRES   REMARKS
TWIN CITIES    LGT RAIN  69  64  84 E10       29.90F
ST PAUL        LGT RAIN  67  63  87 CALM      29.89F FOG
CRYSTAL        RAIN      67  62  84 VRB3      29.89S
BLAINE         CLOUDY    66  64  94 SE9       29.91S
EDEN PRAIRIE   LGT RAIN  68  63  84 N7        29.86F
SOUTH ST PAUL  CLOUDY    66  65  96 S3        29.90F
LAKE ELMO      HVY RAIN  64  63  94 SE6       29.93S
$$
MNZ001>005-007-008-013>017-022>024-027-028-251700-
   Northwest Minnesota

CITY           SKY/WX    TMP DP  RH WIND       PRES   REMARKS
BEMIDJI        CLOUDY    61  56  83 E12G18    29.87F
HALLOCK        CLOUDY    73  54  49 E17G24    29.81F
ROSEAU         CLOUDY    68  57  68 E7        29.90R
WARROAD        CLOUDY    61  55  82 NE10      29.92R
THIEF RVR FALL CLOUDY    66  54  63 E16G24    29.84S
CROOKSTON      CLOUDY    66  61  82 E9        29.79F
FOSSTON        CLOUDY    63  55  77 SE10G17   29.83S
DETROIT LAKES  PTSUNNY   64  57  77 SE16G23   29.83S
MOORHEAD       CLOUDY    64  59  82 SE14      29.78S
PARK RAPIDS    CLOUDY    66  55  67 SE13      29.86F
MAHNOMEN       FAIR      64  57  77 SE15      29.79F
$$
MNZ006-009>011-018-025>026-251700-
   North Central Minnesota

CITY           SKY/WX    TMP DP  RH WIND       PRES   REMARKS
BAUDETTE       CLOUDY    59  54  83 E13       29.93F
FLAG ISLAND    CLOUDY    63  55  77 SE7       29.93S
WASKISH        CLOUDY    63  57  82 E10       29.91F
BIG FORK       CLOUDY    64  54  68 E8        29.94F
LONGVILLE      CLOUDY    63  57  82 SE8       29.91F
CRANE LAKE     CLOUDY    63  54  72 E3        30.02F
ORR            CLOUDY    63  50  63 E7        29.96F
COOK           CLOUDY    64  54  68 SE5       29.98F
WALKER         FAIR      61  56  85 E5        29.89F
$$
MNZ012-019>021-037-251700-
   Northeast Minnesota

CITY           SKY/WX    TMP DP  RH WIND       PRES   REMARKS
ELY            CLOUDY    64  50  59 E12       30.01F
HIBBING        PTSUNNY   61  52  72 E12       29.97F
EVELETH        MOSUNNY   63  52  67 E8        30.00S
DULUTH HARBOR  CLOUDY    46  45  93 NE18      30.04S FOG
TWO HARBORS    CLOUDY    55  50  82 NE14G21   30.01F HAZE
SILVER BAY     FOG       48  48 100 NE9       30.04S VSB 1
GRAND MARAIS     N/A     43  42  97 NE10      30.10F
G MARAIS ARPRT PTSUNNY   54  48  82 E5        30.09F
$$
MNZ029>031-032-039>041-046>048-054>057-064-251700-
   West Central Minnesota

CITY           SKY/WX    TMP DP  RH WIND       PRES   REMARKS
FERGUS FALLS   CLOUDY    64  57  77 SE18      29.74F
WHEATON        CLOUDY    66  63  88 SE17      29.75F
MORRIS         CLOUDY    64  59  82 SE23      29.75S
ALEXANDRIA     CLOUDY    62  59  90 E14       29.82F
ELBOW LAKE     CLOUDY    63  58  84 SE17      29.77F
WADENA         CLOUDY    63  57  82 SE20      29.87S
GLENWOOD       CLOUDY    63  61  94 SE14      29.82F
APPLETON       MOSUNNY   70  61  73 SE13G22   29.76R
BENSON         CLOUDY    68  61  77 SE10G18   29.78S
ORTONVILLE     CLOUDY    66  61  82 S16G22    29.74S
MADISON        CLOUDY    72  63  73 S24       29.76S
WILLMAR        FAIR      63  63 100 E14       29.81F
$$
MNZ033>034-036-042>043-049>051-058-059-251700-
   Central Minnesota

CITY           SKY/WX    TMP DP  RH WIND       PRES   REMARKS
ST CLOUD       RAIN      62  61  96 CALM      29.90F FOG
SAUK CENTRE    LGT RAIN  61  60  96 E16       29.84F
PAYNESVILLE    LGT RAIN  62  62  99 E9        29.84F
AITKIN         CLOUDY    61  52  72 E7        29.93R
PINE RIVER     CLOUDY    61  55  82 SE14      29.94S
BRAINERD       CLOUDY    60  55  83 E7        29.91S
STAPLES        HVY RAIN  61  57  88 SE5       29.89R
LONG PRAIRIE   LGT RAIN  61  59  94 E10       29.87F
LITTLE FALLS   TSTM      61  57  88 S6        29.92R
LITCHFIELD     LGT RAIN  64  64 100 E9        29.83F
BUFFALO        LGT RAIN  64  61  90 N3        29.88F
MAPLE LAKE     RAIN      64  63  96 N3        29.89F
HUTCHINSON     LGT RAIN  65  64  96 NE10      29.82F
$$
MNZ037-044-045-052-053-251700-
   East Central Minnesota

CITY           SKY/WX    TMP DP  RH WIND       PRES   REMARKS
PRINCETON      TSTM      66  61  82 S10       29.95R
MORA           CLOUDY    61  54  77 E5        29.94R
CAMBRIDGE      CLOUDY    70  59  68 CALM      29.90R
RUSH CITY      CLOUDY    66  60  81 NE6       29.92R
MOOSE LAKE     CLOUDY    52  48  87 NE8       29.97R
HINCKLEY       FAIR      64  57  77 E9        29.95R
CLOQUET        FOG       48  46  93 E14G22    30.00S VSB 1/2
MCGREGOR       CLOUDY    55  52  88 E13       29.97R
$$
MNZ071>073-080-081-089-090-097-098-251700-
   Southwest Minnesota

CITY           SKY/WX    TMP DP  RH WIND       PRES   REMARKS
MONTEVIDEO     CLOUDY    72  63  73 S15       29.80S
GRANITE FALLS  CLOUDY    71  63  75 E16       29.81S
CANBY          CLOUDY    73  63  71 S10G20    29.78S
REDWOOD FALLS  CLOUDY    66  62  87 E10       29.80F
OLIVIA         CLOUDY    63  59  88 E9        29.80F
PIPESTONE      MOSUNNY   72  59  64 SW16      29.81R
WINDOM         CLOUDY    70  61  73 SE8       29.82R
JACKSON        PTSUNNY   70  61  73 SE12      29.83S
TRACY          CLOUDY    72  63  73 S12       29.79F
SLAYTON        CLOUDY    71  63  75 S18G24    29.82R
$$
MNZ065>067-074>077-082>085-091>093-251700-
   South Central Minnesota

CITY           SKY/WX    TMP DP  RH WIND       PRES   REMARKS
MANKATO        PTSUNNY   66  63  88 E9        29.86R
NEW ULM        CLOUDY    64  64 100 E9        29.81F
ST JAMES       PTSUNNY   64  59  82 SE7       29.83F
FAIRMONT       CLOUDY    70  54  56 SE13      29.83S
GLENCOE        PTSUNNY   64  64 100 NE6       29.82F
FARIBAULT      PTSUNNY   68  64  88 E6        29.87F
OWATONNA       LGT RAIN  70  64  83 E8        29.87F
WASECA         DRIZZLE   64  63  94 E3        29.87F
ALBERT LEA     DRIZZLE   68  66  94 E7        29.86S
$$
MNZ078>079-086>088-094>096-251700-
   Southeast Minnesota

CITY           SKY/WX    TMP DP  RH WIND       PRES   REMARKS
ROCHESTER      CLOUDY    70  66  87 E10       29.88F
RED WING       LGT RAIN  66  64  94 NE7       29.87F
STANTON        PTSUNNY   69  64  82 E6        29.86F
DODGE CENTER   CLOUDY    70  66  88 E8        29.88F FOG
WINONA         PTSUNNY   70  63  78 E7        29.88F
AUSTIN         CLOUDY    70  64  83 NE6       29.86F
PRESTON        CLOUDY    66  63  88 E5        29.89S
$$
ABBREVIATIONS USED IN REMARKS
   TC - TEMPERATURES IN CELSIUS
  WCI - WIND CHILL INDEX
   HX - HEAT INDEX
  VSB - VISIBILITY
$$




USA.gov is the U.S. government's official web portal to all federal, state and local government web resources and services.